WetterOnline ( https://www.wetteronline.de )

Wetter aktuell Am Römerhof

Aktuelles Wetter: Gießen (195m)

6-stündlich | Neueste Meldungen
Ortszeit Temperatur Wetter
Do, 20.06. 2:00 11.7° C wolkenlos
Mi, 19.06. 20:00 17.7° C wolkenlos
Mi, 19.06. 14:00 15.7° C leichter Regen
Mi, 19.06. 8:00 15.4° C bedeckt
Mi, 19.06. 2:00 17.5° C leichter Regen
Di, 18.06. 20:00 23.3° C wolkig
Di, 18.06. 14:00 17.6° C leichter Regen
Di, 18.06. 8:00 14.8° C Nebel
Ortszeit Temperatur Wetter
Do, 20.06. 5:00 11.1° C Nebel
Do, 20.06. 4:50 11.1° C Nebel
Do, 20.06. 4:40 11.2° C Nebel
Do, 20.06. 4:30 11.1° C Nebel
Do, 20.06. 4:20 11.1° C Nebel
Do, 20.06. 4:10 10.9° C Nebel
Do, 20.06. 4:00 10.5° C Nebel
Do, 20.06. 3:30 10.6° C Nebel
Do, 20.06. 3:00 10.6° C Nebel
Do, 20.06. 2:30 10.8° C Nebel
Do, 20.06. 2:00 11.7° C wolkenlos
Ortszeit Relative Feuchte Sichtweite
Do, 20.06. 2:00 99% 5.0 km
Mi, 19.06. 20:00 75% 55 km
Mi, 19.06. 14:00 89% 19 km
Mi, 19.06. 8:00 92% 50 km
Mi, 19.06. 2:00 96% 13 km
Di, 18.06. 20:00 73% 45 km
Di, 18.06. 14:00 99% 19 km
Di, 18.06. 8:00 98% 1.0 km
Ortszeit Relative Feuchte Sichtweite
Do, 20.06. 5:00 100% 100 m
Do, 20.06. 4:50 100% -
Do, 20.06. 4:40 100% -
Do, 20.06. 4:30 100% 100 m
Do, 20.06. 4:20 100% -
Do, 20.06. 4:10 100% -
Do, 20.06. 4:00 100% 100 m
Do, 20.06. 3:30 99% <100 m
Do, 20.06. 3:00 99% 100 m
Do, 20.06. 2:30 99% 2.0 km
Do, 20.06. 2:00 99% 5.0 km
Ortszeit Niederschlagsmenge Niederschlagsart
Do, 20.06. 2:00 0.0 l/m2 in 6 Std. -
Mi, 19.06. 20:00 2 l/m2 in 12 Std. Regen
Mi, 19.06. 14:00 2 l/m2 in 6 Std. Regen
Mi, 19.06. 8:00 3 l/m2 in 12 Std. Regen
Mi, 19.06. 2:00 2 l/m2 in 6 Std. Regen
Di, 18.06. 20:00 21 l/m2 in 12 Std. Regen
Di, 18.06. 14:00 21 l/m2 in 6 Std. Regen, Niederschlag
Di, 18.06. 8:00 0.0 l/m2 in 12 Std. -
Ortszeit Niederschlagsmenge Niederschlagsart
Do, 20.06. 5:00 0.0 l/m2 in 1 Std. -
Do, 20.06. 4:50 keine Meldung -
Do, 20.06. 4:40 keine Meldung -
Do, 20.06. 4:30 0.0 l/m2 in 30 Min -
Do, 20.06. 4:20 keine Meldung -
Do, 20.06. 4:10 keine Meldung -
Do, 20.06. 4:00 0.0 l/m2 in 1 Std. -
Do, 20.06. 3:30 0.0 l/m2 in 30 Min -
Do, 20.06. 3:00 0.0 l/m2 in 1 Std. -
Do, 20.06. 2:30 0.0 l/m2 in 30 Min -
Do, 20.06. 2:00 0.0 l/m2 in 1 Std. -
Ortszeit Stärke Spitze Richtung
km/h Bft. km/h Grad Sektor
Do, 20.06. 2:00 4 1 11 20° N
Mi, 19.06. 20:00 7 2 24 40° NO
Mi, 19.06. 14:00 13 3 31 350° N
Mi, 19.06. 8:00 11 2 22 360° N
Mi, 19.06. 2:00 9 2 17 290° W
Di, 18.06. 20:00 7 2 25 300° NW
Di, 18.06. 14:00 13 3 52 260° W
Di, 18.06. 8:00 6 1 9 90° O
Ortszeit Stärke Spitze Richtung
km/h Bft. km/h Grad Sektor
Do, 20.06. 5:00 7 2 14 30° NO
Do, 20.06. 4:50 7 2 - 30° NO
Do, 20.06. 4:40 7 2 - 40° NO
Do, 20.06. 4:30 7 2 14 30° NO
Do, 20.06. 4:20 7 2 - 30° NO
Do, 20.06. 4:10 9 2 - 40° NO
Do, 20.06. 4:00 7 2 11 40° NO
Do, 20.06. 3:30 6 1 9 40° NO
Do, 20.06. 3:00 6 1 7 50° NO
Do, 20.06. 2:30 7 2 7 30° NO
Do, 20.06. 2:00 4 1 7 20° N
Ortszeit Untergrenze Bedeckung Gattung
total tief tief mittel hoch
Do, 20.06. 2:00 - 0/8 0/8 - - -
Mi, 19.06. 20:00 - 0/8 0/8 - - -
Mi, 19.06. 14:00 330 m 8/8 8/8 - - -
Mi, 19.06. 8:00 270 m 8/8 8/8 - - -
Mi, 19.06. 2:00 720 m 7/8 7/8 - - -
Di, 18.06. 20:00 1500 m 7/8 5/8 - - -
Di, 18.06. 14:00 180 m 8/8 7/8 - - -
Di, 18.06. 8:00 30 m 8/8 8/8 - - -
Ortszeit Bedeckungsgrad in Achtel und Wolkenuntergrenze
Do, 20.06. 5:00 8(<30m)
Do, 20.06. 4:50 8(<30m)
Do, 20.06. 4:40 8
Do, 20.06. 4:30 7(<30m) 8(8700m)
Do, 20.06. 4:20 7(<30m) 8(8700m)
Do, 20.06. 4:10 7
Do, 20.06. 4:00 7(<30m) 7(8700m)
Do, 20.06. 3:30 8(<30m)
Do, 20.06. 3:00 2(<30m)
Do, 20.06. 2:30 keine Wolken
Do, 20.06. 2:00 keine Wolken
Ortszeit Luftdruck NN (hPa) Tendenz (hPa in 3 Std.)
Do, 20.06. 2:00 1022 + 1,1
Mi, 19.06. 20:00 1020 + 0,7
Mi, 19.06. 14:00 1018 + 2,0
Mi, 19.06. 8:00 1014 + 2,1
Mi, 19.06. 2:00 1012 + 1,7
Di, 18.06. 20:00 1010 - 0,6
Di, 18.06. 14:00 1014 - 0,3
Di, 18.06. 8:00 1016 - 0,1
Ortszeit Luftdruck NN (hPa) Tendenz (hPa in 3 Std.)
Do, 20.06. 5:00 1022 - 0,2
Do, 20.06. 4:50 1022 keine Meldung
Do, 20.06. 4:40 1022 keine Meldung
Do, 20.06. 4:30 1022 - 0,6
Do, 20.06. 4:20 1022 keine Meldung
Do, 20.06. 4:10 1022 keine Meldung
Do, 20.06. 4:00 1022 + 0,2
Do, 20.06. 3:30 1022 + 0,4
Do, 20.06. 3:00 1022 + 0,4
Do, 20.06. 2:30 1022 + 0,6
Do, 20.06. 2:00 1022 + 1,1
Ortszeit Schneehöhe (cm)
Do, 20.06. 2:00 0
Mi, 19.06. 20:00 0
Mi, 19.06. 14:00 0
Mi, 19.06. 8:00 0
Mi, 19.06. 2:00 0
Di, 18.06. 20:00 0
Di, 18.06. 14:00 0
Di, 18.06. 8:00 0
Ortszeit Schneehöhe (cm)
Do, 20.06. 5:00 0
Do, 20.06. 4:50 0
Do, 20.06. 4:40 -
Do, 20.06. 4:30 0
Do, 20.06. 4:20 0
Do, 20.06. 4:10 -
Do, 20.06. 4:00 0
Do, 20.06. 3:30 0
Do, 20.06. 3:00 0
Do, 20.06. 2:30 0
Do, 20.06. 2:00 0
Link zu dieser Seite / Seite empfehlen

Das Wetter in ...